Previsão horária em Celinnoe

Hoje, 2 Agosto, Segunda-feira

Tempo Temperatura Precipitação Vento Pressão Humidade
00:00 +23°C° 0 mm 1 m/s 735 mmHg 62%
01:00 +23°C° 0 mm 1 m/s 735 mmHg 65%
02:00 +22°C° 0 mm 1 m/s 736 mmHg 64%
03:00 +22°C° 0 mm 1 m/s 736 mmHg 63%
04:00 +22°C° 0 mm 1 m/s 736 mmHg 61%
05:00 +23°C° 0 mm 1 m/s 736 mmHg 56%
06:00 +25°C° 0 mm 2 m/s 736 mmHg 51%
07:00 +26°C° 0 mm 2 m/s 736 mmHg 46%
08:00 +28°C° 0 mm 3 m/s 736 mmHg 40%
09:00 +30°C° 0 mm 3 m/s 736 mmHg 35%
10:00 +33°C° 0 mm 4 m/s 736 mmHg 30%
11:00 +34°C° 0 mm 4 m/s 736 mmHg 28%
12:00 +35°C° 0 mm 4 m/s 736 mmHg 26%
13:00 +35°C° 0 mm 5 m/s 736 mmHg 25%
14:00 +35°C° 0 mm 5 m/s 736 mmHg 24%
15:00 +35°C° 0 mm 5 m/s 736 mmHg 23%
16:00 +36°C° 0 mm 5 m/s 736 mmHg 22%
17:00 +34°C° 0 mm 4 m/s 736 mmHg 26%
18:00 +32°C° 0 mm 4 m/s 736 mmHg 30%
19:00 +30°C° 0 mm 4 m/s 736 mmHg 34%
20:00 +28°C° 0 mm 3 m/s 736 mmHg 37%
21:00 +26°C° 0 mm 3 m/s 736 mmHg 40%
22:00 +24°C° 0 mm 3 m/s 737 mmHg 43%
23:00 +24°C° 0 mm 2 m/s 737 mmHg 46%

Amanhã, 3 Agosto, Terça-feira

Tempo Temperatura Precipitação Vento Pressão Humidade
00:00 +23°C° 0 mm 2 m/s 737 mmHg 48%
01:00 +23°C° 0 mm 1 m/s 737 mmHg 50%
02:00 +22°C° 0 mm 1 m/s 737 mmHg 51%
03:00 +22°C° 0 mm 1 m/s 737 mmHg 52%
04:00 +21°C° 0 mm 1 m/s 737 mmHg 53%
05:00 +23°C° 0 mm 1 m/s 737 mmHg 50%
06:00 +24°C° 0 mm 1 m/s 737 mmHg 47%
07:00 +25°C° 0 mm 1 m/s 737 mmHg 44%
08:00 +27°C° 0 mm 1 m/s 737 mmHg 39%
09:00 +30°C° 0 mm 1 m/s 737 mmHg 35%
10:00 +32°C° 0 mm 2 m/s 737 mmHg 30%
11:00 +34°C° 0 mm 2 m/s 737 mmHg 27%
12:00 +34°C° 0 mm 1 m/s 737 mmHg 25%
13:00 +35°C° 0 mm 1 m/s 737 mmHg 23%
14:00 +35°C° 0 mm 1 m/s 736 mmHg 22%
15:00 +36°C° 0 mm 1 m/s 736 mmHg 21%
16:00 +36°C° 0 mm 1 m/s 736 mmHg 20%
17:00 +36°C° 0 mm 2 m/s 736 mmHg 23%
18:00 +34°C° 0 mm 2 m/s 735 mmHg 27%
19:00 +32°C° 0 mm 2 m/s 735 mmHg 30%
20:00 +30°C° 0 mm 2 m/s 735 mmHg 32%
21:00 +29°C° 0 mm 2 m/s 735 mmHg 35%
22:00 +27°C° 0 mm 2 m/s 735 mmHg 37%
23:00 +27°C° 0 mm 2 m/s 735 mmHg 38%

Depois de amanhã, 4 Agosto, Quarta-feira

Tempo Temperatura Precipitação Vento Pressão Humidade
00:00 +26°C° 0 mm 2 m/s 735 mmHg 38%
01:00 +26°C° 0 mm 2 m/s 735 mmHg 39%
02:00 +26°C° 0 mm 2 m/s 735 mmHg 40%
03:00 +25°C° 0 mm 2 m/s 735 mmHg 41%
04:00 +25°C° 0 mm 2 m/s 735 mmHg 41%
05:00 +26°C° 0.1 mm 1 m/s 735 mmHg 41%
06:00 +27°C° 0.1 mm 1 m/s 736 mmHg 40%
07:00 +28°C° 0.1 mm 1 m/s 736 mmHg 40%
08:00 +30°C° 0.1 mm 1 m/s 736 mmHg 35%
09:00 +34°C° 0.1 mm 2 m/s 736 mmHg 30%
10:00 +36°C° 0.1 mm 2 m/s 736 mmHg 26%
11:00 +37°C° 0 mm 3 m/s 735 mmHg 23%
12:00 +38°C° 0 mm 3 m/s 735 mmHg 20%
13:00 +40°C° 0 mm 3 m/s 735 mmHg 17%
14:00 +39°C° 0 mm 3 m/s 734 mmHg 17%
15:00 +39°C° 0 mm 3 m/s 734 mmHg 17%
16:00 +40°C° 0 mm 4 m/s 734 mmHg 17%
17:00 +36°C° 0 mm 4 m/s 734 mmHg 24%
18:00 +34°C° 0 mm 5 m/s 735 mmHg 30%
19:00 +30°C° 0 mm 6 m/s 735 mmHg 37%
20:00 +28°C° 0.1 mm 5 m/s 735 mmHg 42%
21:00 +27°C° 0.1 mm 4 m/s 735 mmHg 47%
22:00 +26°C° 0.1 mm 3 m/s 735 mmHg 52%
23:00 +25°C° 0 mm 2 m/s 735 mmHg 54%

5 Agosto, Quinta-feira

Tempo Temperatura Precipitação Vento Pressão Humidade
00:00 +25°C° 0 mm 2 m/s 735 mmHg 56%
01:00 +24°C° 0 mm 1 m/s 734 mmHg 58%
02:00 +24°C° 0 mm 1 m/s 734 mmHg 58%
03:00 +23°C° 0 mm 1 m/s 734 mmHg 59%
04:00 +23°C° 0 mm 1 m/s 734 mmHg 60%
05:00 +24°C° 0 mm 1 m/s 735 mmHg 56%
06:00 +26°C° 0 mm 1 m/s 735 mmHg 52%
07:00 +27°C° 0 mm 1 m/s 735 mmHg 48%
08:00 +29°C° 0 mm 1 m/s 735 mmHg 43%
09:00 +31°C° 0 mm 1 m/s 735 mmHg 38%
10:00 +34°C° 0 mm 2 m/s 735 mmHg 32%
11:00 +35°C° 0 mm 2 m/s 734 mmHg 29%
12:00 +36°C° 0 mm 3 m/s 734 mmHg 26%
13:00 +38°C° 0 mm 3 m/s 734 mmHg 22%
14:00 +38°C° 0 mm 3 m/s 733 mmHg 21%
15:00 +38°C° 0 mm 4 m/s 733 mmHg 21%
16:00 +38°C° 0 mm 4 m/s 732 mmHg 20%
17:00 +35°C° 0 mm 5 m/s 732 mmHg 29%
18:00 +32°C° 0 mm 6 m/s 732 mmHg 39%
19:00 +27°C° 0 mm 7 m/s 733 mmHg 48%
20:00 +26°C° 0 mm 5 m/s 733 mmHg 54%
21:00 +25°C° 0 mm 4 m/s 733 mmHg 61%
22:00 +23°C° 0 mm 2 m/s 733 mmHg 67%
23:00 +23°C° 0 mm 2 m/s 733 mmHg 67%

6 Agosto, Sexta-feira

Tempo Temperatura Precipitação Vento Pressão Humidade
00:00 +23°C° 0 mm 1 m/s 733 mmHg 68%
01:00 +22°C° 0 mm 1 m/s 733 mmHg 68%
02:00 +22°C° 0 mm 1 m/s 733 mmHg 68%
03:00 +22°C° 0 mm 1 m/s 732 mmHg 69%
04:00 +21°C° 0 mm 2 m/s 732 mmHg 69%
05:00 +23°C° 0 mm 2 m/s 732 mmHg 68%
06:00 +22°C° 0 mm 3 m/s 732 mmHg 66%
07:00 +23°C° 0 mm 4 m/s 733 mmHg 65%
08:00 +25°C° 0 mm 3 m/s 732 mmHg 59%
09:00 +27°C° 0 mm 3 m/s 732 mmHg 52%
10:00 +29°C° 0 mm 2 m/s 732 mmHg 46%
11:00 +30°C° 0 mm 2 m/s 732 mmHg 42%
12:00 +31°C° 0 mm 1 m/s 732 mmHg 38%
13:00 +32°C° 0 mm 1 m/s 732 mmHg 34%
14:00 +32°C° 0.1 mm 2 m/s 731 mmHg 34%
15:00 +33°C° 0.1 mm 3 m/s 730 mmHg 35%
16:00 +33°C° 0.1 mm 4 m/s 729 mmHg 35%
17:00 +28°C° 1.9 mm 4 m/s 730 mmHg 48%
18:00 +23°C° 1.9 mm 4 m/s 731 mmHg 62%
19:00 +20°C° 1.9 mm 3 m/s 731 mmHg 75%
20:00 +19°C° 0.1 mm 3 m/s 732 mmHg 78%
21:00 +18°C° 0.1 mm 3 m/s 732 mmHg 81%
22:00 +17°C° 0.1 mm 3 m/s 732 mmHg 83%
23:00 +17°C° 0.1 mm 4 m/s 732 mmHg 84%

7 Agosto, Sábado

Tempo Temperatura Precipitação Vento Pressão Humidade
00:00 +17°C° 0.1 mm 4 m/s 732 mmHg 86%
01:00 +17°C° 0.1 mm 4 m/s 732 mmHg 87%
02:00 +17°C° 0.1 mm 4 m/s 732 mmHg 86%
03:00 +17°C° 0.1 mm 5 m/s 732 mmHg 86%
04:00 +17°C° 0.1 mm 5 m/s 732 mmHg 85%
05:00 +17°C° 0.2 mm 6 m/s 732 mmHg 85%
06:00 +16°C° 0.2 mm 6 m/s 732 mmHg 85%
07:00 +16°C° 0.2 mm 7 m/s 733 mmHg 85%
08:00 +18°C° 0 mm 7 m/s 733 mmHg 76%
09:00 +20°C° 0 mm 6 m/s 733 mmHg 68%
10:00 +22°C° 0 mm 6 m/s 733 mmHg 59%
11:00 +22°C° 0.6 mm 6 m/s 733 mmHg 58%
12:00 +23°C° 0.6 mm 7 m/s 734 mmHg 57%
13:00 +23°C° 0.6 mm 7 m/s 734 mmHg 55%
14:00 +23°C° 0.3 mm 7 m/s 734 mmHg 56%
15:00 +22°C° 0.4 mm 7 m/s 734 mmHg 56%
16:00 +22°C° 0.4 mm 7 m/s 734 mmHg 56%
17:00 +21°C° 0.1 mm 6 m/s 735 mmHg 59%
18:00 +20°C° 0.1 mm 6 m/s 735 mmHg 63%
19:00 +19°C° 0.1 mm 5 m/s 735 mmHg 67%
20:00 +17°C° 0 mm 5 m/s 735 mmHg 72%
21:00 +17°C° 0 mm 4 m/s 736 mmHg 77%
22:00 +16°C° 0 mm 3 m/s 736 mmHg 82%
23:00 +14°C° 0 mm 3 m/s 736 mmHg 82%
Mostrar mais

Necessitamos do seu Consentimento

A Meteoprog e os seus Fornecedores de Serviços podem armazenar e aceder a dados pessoais como cookies, identificadores do dispositivo ou outras tecnologias semelhantes existentes no seu dispositivo e processar estes dados para personalizar conteúdos e anúncios, assim como funcionalidades nas redes sociais e análise de tráfego.

  • Armazenar e/ou aceder a informações no seu dispositivo

    Os cookies, identificadores do dispositivo ou outras informações podem ser armazenados ou acedidos no seu dispositivo, para os fins acima indicados.

  • Anúncios e conteúdos personalizados, medição de anúncios e conteúdos, dados sobre o público-alvo e desenvolvimento de produtos

    Os anúncios e os conteúdos podem ser personalizados com base num perfil. Podem ser adicionados dados adicionais para uma maior personalização dos anúncios e dos conteúdos. A eficácia dos anúncios e dos conteúdos pode ser medida. Podem ser obtidas informações sobre o público que visualizou os anúncios e os conteúdos. Estes dados podem ser usados para desenvolver ou melhorar sistemas, softwares ou a experiência do utilizador.

Ao clicar em "Eu concordo”, permitirá o uso de cookies, identificadores do dispositivo e web beacons mencionados ou outras tecnologias semelhantes. As configurações do navegador do seu dispositivo podem ser alteradas.

Para certos fins, podem ser invocados interesses legítimos ao invés de consentimento. Pode ler mais informação sobre este assunto na nossa Política de Privacidade e Cookies.